When you browse on this site, cookies collect data to enhance your experience and personalize the content and advertising you see.
Visit our Privacy Policy to learn more. By continuing to use the site, you agree to this use of cookies and data.
  • In Romania
  • List of Countries
  • For 7 days
  • Water Temperature
  • Satellite Maps
  • Weather Map
  • Weather Widgets
  • user-avatar
    Login

    Hourly Weather Shestakovo

    Today, 24 March, Sunday

    Time Temperature Precipitation Wind Pressure Humidity
    00:00 +1°C° 0.8 mm 3 mps 745 mmHg 78%
    01:00 +1°C° 0.8 mm 3 mps 744 mmHg 78%
    02:00 +1°C° 0 mm 3 mps 743 mmHg 80%
    03:00 +1°C° 0.3 mm 3 mps 743 mmHg 81%
    04:00 +1°C° 0.3 mm 3 mps 742 mmHg 83%
    05:00 +1°C° 0.3 mm 3 mps 742 mmHg 84%
    06:00 +1°C° 0 mm 3 mps 741 mmHg 85%
    07:00 +1°C° 0 mm 4 mps 741 mmHg 86%
    08:00 +1°C° 0 mm 4 mps 741 mmHg 87%
    09:00 +3°C° 0 mm 4 mps 741 mmHg 81%
    10:00 +3°C° 0 mm 5 mps 741 mmHg 76%
    11:00 +3°C° 0 mm 5 mps 741 mmHg 71%
    12:00 +5°C° 0.2 mm 5 mps 741 mmHg 66%
    13:00 +5°C° 0.2 mm 5 mps 741 mmHg 61%
    14:00 +5°C° 0.2 mm 6 mps 741 mmHg 56%
    15:00 +5°C° 0 mm 5 mps 741 mmHg 58%
    16:00 +4°C° 0 mm 4 mps 741 mmHg 60%
    17:00 +4°C° 0 mm 3 mps 741 mmHg 62%
    18:00 +3°C° 0 mm 3 mps 741 mmHg 65%
    19:00 +2°C° 0 mm 3 mps 741 mmHg 68%
    20:00 +1°C° 0 mm 3 mps 742 mmHg 71%
    21:00 +1°C° 0 mm 2 mps 742 mmHg 74%
    22:00 -1°C° 0 mm 2 mps 742 mmHg 76%
    23:00 -2°C° 0 mm 2 mps 742 mmHg 78%

    Tomorrow, 25 March, Monday

    Time Temperature Precipitation Wind Pressure Humidity
    00:00 -2°C° 0 mm 2 mps 742 mmHg 79%
    01:00 -2°C° 0 mm 2 mps 741 mmHg 80%
    02:00 -2°C° 0 mm 2 mps 741 mmHg 81%
    03:00 -3°C° 0 mm 2 mps 741 mmHg 80%
    04:00 -3°C° 0 mm 2 mps 741 mmHg 79%
    05:00 -3°C° 0 mm 2 mps 741 mmHg 79%
    06:00 -2°C° 0 mm 3 mps 740 mmHg 74%
    07:00 -1°C° 0 mm 3 mps 740 mmHg 70%
    08:00 0°C° 0 mm 3 mps 740 mmHg 66%
    09:00 +2°C° 0 mm 3 mps 740 mmHg 60%
    10:00 +3°C° 0 mm 4 mps 740 mmHg 53%
    11:00 +5°C° 0 mm 4 mps 739 mmHg 47%
    12:00 +5°C° 0 mm 4 mps 739 mmHg 46%
    13:00 +6°C° 0 mm 4 mps 739 mmHg 45%
    14:00 +6°C° 0 mm 4 mps 739 mmHg 44%
    15:00 +5°C° 0 mm 3 mps 738 mmHg 49%
    16:00 +5°C° 0 mm 2 mps 738 mmHg 55%
    17:00 +5°C° 0 mm 2 mps 738 mmHg 60%
    18:00 +3°C° 0 mm 2 mps 738 mmHg 66%
    19:00 +2°C° 0 mm 2 mps 738 mmHg 71%
    20:00 -1°C° 0 mm 2 mps 738 mmHg 76%
    21:00 -1°C° 0 mm 2 mps 738 mmHg 77%
    22:00 -1°C° 0 mm 2 mps 738 mmHg 78%
    23:00 -1°C° 0 mm 2 mps 737 mmHg 78%

    Day after tomorrow, 26 March, Tuesday

    Time Temperature Precipitation Wind Pressure Humidity
    00:00 -1°C° 0 mm 2 mps 737 mmHg 80%
    01:00 -1°C° 0 mm 2 mps 737 mmHg 83%
    02:00 -1°C° 0 mm 2 mps 737 mmHg 85%
    03:00 -1°C° 0.1 mm 2 mps 737 mmHg 87%
    04:00 -1°C° 0.1 mm 2 mps 736 mmHg 90%
    05:00 -1°C° 0.1 mm 2 mps 736 mmHg 92%
    06:00 -1°C° 0.6 mm 3 mps 736 mmHg 90%
    07:00 -1°C° 0.6 mm 3 mps 736 mmHg 88%
    08:00 -2°C° 0.6 mm 4 mps 736 mmHg 87%
    09:00 -1°C° 0.1 mm 4 mps 737 mmHg 80%
    10:00 -1°C° 0.1 mm 4 mps 737 mmHg 74%
    11:00 -1°C° 0.1 mm 4 mps 737 mmHg 67%
    12:00 -1°C° 0.1 mm 4 mps 737 mmHg 64%
    13:00 0°C° 0.1 mm 4 mps 737 mmHg 60%
    14:00 0°C° 0.1 mm 4 mps 737 mmHg 56%
    15:00 +1°C° 0 mm 3 mps 737 mmHg 56%
    16:00 0°C° 0 mm 3 mps 737 mmHg 56%
    17:00 +1°C° 0 mm 2 mps 738 mmHg 56%
    18:00 -1°C° 0 mm 2 mps 738 mmHg 61%
    19:00 -1°C° 0 mm 1 mps 738 mmHg 66%
    20:00 -2°C° 0 mm 1 mps 739 mmHg 72%
    21:00 -3°C° 0 mm 1 mps 739 mmHg 72%
    22:00 -3°C° 0 mm 1 mps 739 mmHg 73%
    23:00 -3°C° 0 mm 1 mps 740 mmHg 74%

    27 March, Wednesday

    Time Temperature Precipitation Wind Pressure Humidity
    00:00 -5°C° 0 mm 2 mps 740 mmHg 76%
    01:00 -4°C° 0 mm 2 mps 741 mmHg 79%
    02:00 -5°C° 0 mm 3 mps 741 mmHg 81%
    03:00 -5°C° 0 mm 3 mps 742 mmHg 82%
    04:00 -7°C° 0 mm 4 mps 742 mmHg 83%
    05:00 -7°C° 0 mm 4 mps 742 mmHg 83%
    06:00 -5°C° 0.1 mm 4 mps 743 mmHg 80%
    07:00 -5°C° 0.1 mm 5 mps 743 mmHg 77%
    08:00 -5°C° 0.1 mm 5 mps 744 mmHg 74%
    09:00 -4°C° 0.1 mm 5 mps 744 mmHg 69%
    10:00 -3°C° 0.1 mm 6 mps 745 mmHg 65%
    11:00 -3°C° 0.1 mm 6 mps 746 mmHg 60%
    12:00 -2°C° 0 mm 6 mps 746 mmHg 59%
    13:00 -2°C° 0 mm 6 mps 747 mmHg 59%
    14:00 -1°C° 0 mm 5 mps 747 mmHg 58%
    15:00 -1°C° 0 mm 5 mps 748 mmHg 58%
    16:00 -1°C° 0 mm 5 mps 748 mmHg 58%
    17:00 -1°C° 0 mm 4 mps 749 mmHg 59%
    18:00 -1°C° 0 mm 3 mps 749 mmHg 65%
    19:00 -2°C° 0 mm 3 mps 750 mmHg 71%
    20:00 -4°C° 0 mm 2 mps 750 mmHg 77%
    21:00 -4°C° 0 mm 2 mps 751 mmHg 79%
    22:00 -4°C° 0 mm 2 mps 751 mmHg 80%
    23:00 -4°C° 0 mm 2 mps 751 mmHg 81%

    28 March, Thursday

    Time Temperature Precipitation Wind Pressure Humidity
    00:00 -4°C° 0 mm 2 mps 751 mmHg 81%
    01:00 -4°C° 0 mm 2 mps 752 mmHg 81%
    02:00 -5°C° 0 mm 2 mps 752 mmHg 81%
    03:00 -4°C° 0 mm 2 mps 752 mmHg 79%
    04:00 -4°C° 0 mm 2 mps 752 mmHg 77%
    05:00 -5°C° 0 mm 3 mps 752 mmHg 76%
    06:00 -4°C° 0 mm 3 mps 752 mmHg 70%
    07:00 -2°C° 0 mm 3 mps 752 mmHg 64%
    08:00 -1°C° 0 mm 3 mps 752 mmHg 59%
    09:00 -1°C° 0 mm 4 mps 752 mmHg 56%
    10:00 +1°C° 0 mm 4 mps 752 mmHg 53%
    11:00 +2°C° 0 mm 5 mps 751 mmHg 50%
    12:00 +3°C° 0 mm 5 mps 751 mmHg 50%
    13:00 +5°C° 0 mm 5 mps 751 mmHg 50%
    14:00 +5°C° 0 mm 5 mps 750 mmHg 50%
    15:00 +5°C° 0 mm 4 mps 750 mmHg 56%
    16:00 +4°C° 0 mm 4 mps 750 mmHg 62%
    17:00 +4°C° 0 mm 3 mps 749 mmHg 67%
    18:00 +3°C° 0 mm 3 mps 749 mmHg 73%
    19:00 +1°C° 0 mm 4 mps 749 mmHg 79%
    20:00 0°C° 0 mm 4 mps 748 mmHg 85%
    21:00 0°C° 0 mm 4 mps 748 mmHg 85%
    22:00 +1°C° 0 mm 5 mps 747 mmHg 85%
    23:00 +1°C° 0 mm 5 mps 747 mmHg 86%

    29 March, Friday

    Time Temperature Precipitation Wind Pressure Humidity
    00:00 +1°C° 0 mm 5 mps 746 mmHg 86%
    01:00 +1°C° 0 mm 6 mps 746 mmHg 86%
    02:00 +1°C° 0 mm 6 mps 745 mmHg 86%
    03:00 +1°C° 0.1 mm 6 mps 745 mmHg 84%
    04:00 +1°C° 0.1 mm 6 mps 745 mmHg 83%
    05:00 +1°C° 0.1 mm 6 mps 745 mmHg 82%
    06:00 -1°C° 0 mm 6 mps 745 mmHg 77%
    07:00 -1°C° 0 mm 6 mps 746 mmHg 72%
    08:00 -1°C° 0 mm 6 mps 746 mmHg 68%
    09:00 -1°C° 0 mm 6 mps 747 mmHg 66%
    10:00 +1°C° 0 mm 6 mps 747 mmHg 64%
    11:00 +2°C° 0 mm 6 mps 748 mmHg 63%
    12:00 +2°C° 0 mm 5 mps 748 mmHg 62%
    13:00 +3°C° 0 mm 5 mps 749 mmHg 62%
    14:00 +5°C° 0 mm 5 mps 749 mmHg 61%
    15:00 +4°C° 0 mm 4 mps 749 mmHg 63%
    16:00 +4°C° 0 mm 4 mps 750 mmHg 65%
    17:00 +4°C° 0 mm 3 mps 750 mmHg 66%
    18:00 +3°C° 0 mm 3 mps 750 mmHg 73%
    19:00 +2°C° 0 mm 2 mps 751 mmHg 79%
    20:00 +1°C° 0 mm 2 mps 751 mmHg 85%
    21:00 +1°C° 0 mm 2 mps 751 mmHg 87%
    22:00 +1°C° 0 mm 1 mps 751 mmHg 88%
    23:00 +1°C° 0 mm 1 mps 751 mmHg 89%
    Show more